{"data":{"norad_id":46556,"epoch":"2026-09-01T14:52:40.294848Z","epoch_age_seconds":1653082,"freshness":"OLD","line1":"1 46556U 20070AA  26244.61991082  .08582462  12425-4  72876-3 0  9995","line2":"2 46556  53.0133 350.1597 0009788 309.6354  50.3827 16.38550848327651","mean_motion":16.38550848,"eccentricity":0.0009788,"inclination_deg":53.0133,"raan_deg":350.1597,"arg_perigee_deg":309.6354,"mean_anomaly_deg":50.3827,"bstar":0.00072876,"rev_number":32765,"period_min":87.882533627666,"perigee_km":163.25130740749,"apogee_km":176.06927538513,"semimajor_km":6547.7972913963,"source":"CELESTRAK","updated_at":"2026-09-02T09:00:54.437951Z"}}